Regional Weather Roundup
Issued by NWS Spokane, WA

Home | Current Version | Previous Version | Text Only | Print | Product List | Glossary On
Versions: 1 2 3 4 5 6 7 8 9 10 11 12 13 14 15 16 17 18 19 20 21 22 23 24 25 26 27 28 29 30 31 32 33 34 35 36 37 38 39 40 41 42 43 44 45 46 47 48 49 50
848
NZUS01 KOTX 090210
RWROTX
EASTERN WASHINGTON/NORTHERN IDAHO ROUNDUP
NATIONAL WEATHER SERVICE, SPOKANE WA
600 PM PST MON FEB 08 2016

Note: "fair" indicated few or no clouds below 12,000 feet with no
significant weather and/or obstructions to visibility.

...NORTHEAST WASHINGTON AND NORTHERN IDAHO PANHANDLE...

CITY           SKY/WX    TMP DP  RH WIND       PRES   REMARKS
SPOKANE INTL   MOCLDY    42  32  67 N5        30.52S
SPOKANE DOWNTO MOCLDY    42  33  70 CALM      30.53F
COEUR D ALENE  PTCLDY    37  30  75 NE6       30.50F
DEER PARK      PTCLDY    36  30  79 N3        30.53F
SANDPOINT      CLEAR     34  32  93 CALM      30.55S
BONNERS FERRY  FAIR      36  27  69 N5        30.56S

...SOUTHEAST WASHINGTON AND SOUTHERN IDAHO PANHANDLE...

CITY           SKY/WX    TMP DP  RH WIND       PRES   REMARKS
WALLA WALLA    CLEAR     44  36  73 CALM      30.53R
PULLMAN/MOSCOW MOCLDY    44  36  73 CALM      30.52F
LEWISTON       PTCLDY    50  36  58 CALM      30.51S
LOWELL           N/A     38  36  92 N5        30.58R

...COLUMBIA BASIN...

CITY           SKY/WX    TMP DP  RH WIND       PRES   REMARKS
EPHRATA        CLEAR     40  30  67 NW8       30.54F
MOSES LAKE     CLEAR     39  32  76 NW9       30.54F
TRI CITIES     CLEAR     43  35  73 CALM      30.55F
HERMISTON      CLEAR     43  34  70 NE8       30.52F
PENDLETON      CLEAR     39  35  86 NE8       30.50F

...EAST SLOPES CASCADES...

CITY           SKY/WX    TMP DP  RH WIND       PRES   REMARKS
THE DALLES     CLEAR     47  35  63 E8        30.52S
YAKIMA         PTCLDY    42  30  62 W7        30.54S
ELLENSBURG     PTCLDY    32  26  78 E6        30.54S WCI  26
WENATCHEE      CLEAR     38  29  70 NW3       30.56F
OMAK           PTCLDY    27  24  89 CALM      30.59S

...SOUTHERN BRITISH COLUMBIA...

CITY           SKY/WX    TMP DP  RH WIND       PRES   REMARKS
PENTICTON      MOCLDY    32  28  86 SW2       30.59F
CRANBROOK      PTCLDY    32  21  64 W3        30.54S

...WESTERN MONTANA...

CITY           SKY/WX    TMP DP  RH WIND       PRES   REMARKS
MISSOULA       PTCLDY    36  28  73 N3        30.54S

...NEIGHBORING CITIES...

CITY           SKY/WX    TMP DP  RH WIND       PRES   REMARKS
SEATTLE        PTCLDY    52  43  71 N10       30.33F
CALGARY        PTCLDY    46  23  39 VRB2      30.23S



USA.gov is the U.S. government's official web portal to all federal, state and local government web resources and services.